[[{"header":{"parameterUnit":"m.s-1","parameterCategory":1,"la1":30.2991,"la2":30.254,"lo1":-89.0895,"lo2":-89.0444,"dy":0.0017,"dx":0.0017,"nx":28,"ny":28,"refTime":"2024-09-03T21:00:00:Z","depth":0,"parameterNumber":2,"parameterNumberName":"U-component_of_WINDS"},"data":[0,0,0,0,0,0,0,0,0,0,0,0,0,0,0,0,0,0,0,0,0,0,0,0,0,0,0,0,0,0,0,0,0,0,0,0,0,0,0,0,0,0,0,0,0,0,0,0,0,0,0,0,0,0,0,0,0,0,-2.2061,-2.2062,0,-2.2114,-2.2115,-2.2115,-2.2066,-2.2063,-2.2061,-2.206,-2.2122,-2.2125,-2.2129,0,0,0,0,0,0,0,0,0,0,0,0,0,-2.1925,-2.1927,-2.2061,-2.2062,-2.2062,-2.2114,-2.2115,-2.2116,-2.2066,-2.2063,-2.2061,-2.2059,-2.2121,-2.2125,-2.2129,0,0,0,0,0,0,0,0,0,0,0,0,0,-2.1982,-2.1928,-2.2061,-2.2044,-2.2043,-2.2114,-2.2115,-2.2116,-2.2066,-2.2063,-2.206,-2.2057,-2.2119,-2.2124,-2.213,-2.2223,0,0,-2.2146,-2.2148,0,0,0,0,0,0,0,0,-2.1978,-2.1987,-2.2045,-2.2045,-2.2044,-2.208,-2.2089,-2.2152,-2.2067,-2.2058,-2.2059,-2.2056,-2.2111,-2.2117,-2.2133,-2.2226,-2.2229,-2.2146,-2.2149,-2.2152,-2.2153,0,0,0,0,0,0,0,-2.1975,-2.1984,-2.2082,-2.2046,-2.2045,-2.2036,-2.2041,-2.2101,-2.2101,-2.2058,-2.2055,-2.2061,-2.211,-2.2128,-2.2135,-2.223,-2.2146,-2.2151,-2.2154,-2.2156,-2.2402,-2.2405,0,0,0,0,0,0,-2.1971,-2.1981,-2.2081,-2.2084,-2.2003,-2.2041,-2.2046,-2.2072,-2.21,-2.2101,-2.2064,-2.2059,-2.2121,-2.2128,-2.2137,-2.2247,-2.2152,-2.2157,-2.216,-2.2399,-2.2403,-2.2406,0,0,0,0,0,0,-2.1969,-2.1981,-2.2078,-2.2032,-2.2043,-2.2046,-2.2075,-2.2074,-2.2093,-2.2104,-2.2105,-2.2082,-2.2119,-2.2129,-2.2201,-2.2249,-2.2159,-2.2164,-2.2395,-2.24,-2.2405,-2.247,0,0,0,0,0,0,-2.1965,-2.198,-2.2013,-2.2033,-2.2046,-2.214,-2.2078,-2.2077,-2.2101,-2.2095,-2.2121,-2.2123,-2.2117,-2.2194,-2.2207,-2.2254,-2.2168,-2.2391,-2.2397,-2.2403,-2.2463,-2.2476,-2.2487,0,0,0,0,0,-2.196,-2.2031,-2.2015,-2.2028,-2.2087,-2.2143,-2.2151,-2.214,-2.2105,-2.214,-2.2148,-2.2122,-2.2242,-2.2202,-2.2216,-2.2266,-2.2388,-2.2395,-2.2403,-2.2458,-2.2474,-2.2487,0,0,0,0,0,0,-2.202,-2.2033,-2.2016,-2.2095,-2.2118,-2.2134,-2.2178,-2.2157,-2.2193,-2.2186,-2.2174,-2.218,-2.2257,-2.2269,-2.2224,-2.2358,-2.2309,-2.232,-2.2346,-2.2362,-2.2373,-2.2368,-2.2172,0,0,0,0,0,-2.2042,-2.2083,-2.2094,-2.2163,-2.2175,-2.2175,-2.2199,-2.2188,-2.2213,-2.2223,-2.2236,-2.2262,-2.2306,-2.2335,-2.2376,-2.2466,-2.2471,-2.2507,-2.2519,-2.2529,-2.2538,-2.2587,-2.2603,-2.2431,-2.2431,-2.2431,0,0,-2.2089,-2.2101,-2.2128,-2.2175,-2.2192,-2.2237,-2.2183,-2.2233,-2.2267,-2.2231,-2.2299,-2.231,-2.2339,-2.2421,-2.2457,-2.2433,-2.2587,-2.2539,-2.2546,-2.255,-2.2596,-2.2612,-2.2627,-2.2436,-2.2435,-2.2435,0,0,-2.2196,-2.221,-2.2268,-2.2285,-2.231,-2.2309,-2.2324,-2.2344,-2.2348,-2.2416,-2.239,-2.2432,-2.2507,-2.2529,-2.255,-2.2667,-2.2645,-2.2681,-2.2744,-2.2791,-2.2805,-2.2817,-2.2858,-2.2873,-2.2691,-2.2691,-2.2691,0,-2.2251,-2.2315,-2.2301,-2.2352,-2.2374,-2.2342,-2.2402,-2.2421,-2.2459,-2.2476,-2.2449,-2.2542,-2.256,-2.2645,-2.2674,-2.2693,-2.2709,-2.2677,-2.2803,-2.2815,-2.2826,-2.2865,-2.2881,-2.2695,-2.2694,-2.2694,-2.2694,0,-2.2382,-2.2427,-2.2472,-2.2506,-2.2534,-2.259,-2.2586,-2.2616,-2.2605,-2.2608,-2.2678,-2.2698,-2.2742,-2.2763,-2.2753,-2.2848,-2.2832,-2.2805,-2.2755,-2.2847,-2.2883,-2.2898,-2.2701,-2.2699,-2.2698,-2.2697,0,0,-2.2526,-2.2552,-2.2569,-2.2584,-2.261,-2.2646,-2.2702,-2.2742,-2.2768,-2.2797,-2.2844,-2.2909,-2.2883,-2.2907,-2.29,-2.2942,-2.3033,-2.2909,-2.291,-2.2931,-2.3139,-2.3158,-2.3175,-2.302,-2.3022,-2.3025,-2.3136,0,-2.2633,-2.2725,-2.2715,-2.2805,-2.2847,-2.2818,-2.2866,-2.2889,-2.2894,-2.2933,-2.294,-2.2986,-2.2949,-2.2963,-2.3004,-2.3013,-2.3074,-2.3005,-2.3064,-2.3067,-2.3055,-2.3195,-2.3215,-2.3319,-2.315,-2.3153,-2.3154,0,-2.2769,-2.2799,-2.2892,-2.2911,-2.2929,-2.2972,-2.3009,-2.3046,-2.3072,-2.3073,-2.31,-2.3086,-2.3145,-2.3095,-2.3177,-2.313,-2.3154,-2.3163,-2.3167,-2.3171,-2.3115,-2.3201,-2.3352,-2.3367,-2.3177,-2.3175,-2.3173,0,-2.2864,-2.2928,-2.2991,-2.3006,-2.303,-2.3062,-2.3074,-2.3097,-2.3122,-2.3156,-2.3172,-2.3214,-2.3236,-2.327,-2.3268,-2.3232,-2.3351,-2.3301,-2.3354,-2.3354,-2.3379,-2.3377,-2.3534,-2.3397,-2.3397,-2.3397,-2.3397,0,-2.2983,-2.304,-2.3034,-2.3073,-2.3138,-2.3127,-2.3192,-2.3201,-2.3222,-2.3264,-2.3244,-2.3285,-2.3281,-2.3323,-2.3323,-2.339,-2.3401,-2.3405,-2.3404,-2.3405,-2.3405,-2.342,-2.3412,-2.3401,-2.34,-2.3399,-2.3399,0,-2.3098,-2.3096,-2.3163,-2.318,-2.3186,-2.3233,-2.3249,-2.3288,-2.3292,-2.3346,-2.3358,-2.3365,-2.3413,-2.3415,-2.3472,-2.3472,-2.3554,-2.3546,-2.3544,-2.3542,-2.3594,-2.3589,-2.3765,-2.3788,-2.3637,-2.3639,-2.364,0,-2.3173,-2.3216,-2.3238,-2.3263,-2.3276,-2.3318,-2.3343,-2.3336,-2.3363,-2.3397,-2.3432,-2.3478,-2.3513,-2.3593,-2.3605,-2.3649,-2.3641,-2.37,-2.3647,-2.3648,-2.3641,-2.3637,-2.3642,-2.3709,-2.3711,-2.3712,-2.3713,0,-2.3306,-2.3303,-2.3338,-2.3374,-2.3404,-2.3432,-2.3459,-2.3482,-2.3478,-2.351,-2.3558,-2.3586,-2.3643,-2.3689,-2.3732,-2.3748,-2.3731,-2.373,-2.3744,-2.3746,-2.3743,-2.3744,-2.357,-2.3726,-2.3724,-2.3724,-2.3723,-2.3722,-2.3403,-2.344,-2.346,-2.3501,-2.352,-2.3545,-2.3581,-2.3589,-2.3628,-2.3671,-2.3666,-2.3719,-2.3747,-2.3801,-2.3821,-2.3864,-2.3845,-2.3866,-2.3871,-2.3876,-2.3881,-2.3737,-2.3873,-2.3872,-2.3872,-2.3872,-2.3871,0,-2.3534,-2.3546,-2.3583,-2.3619,-2.3652,-2.3631,-2.366,-2.3689,-2.3735,-2.3761,-2.3796,-2.3852,-2.3897,-2.3913,-2.3958,-2.399,-2.3983,-2.4002,-2.3999,-2.4003,-2.3896,-2.3879,-2.4006,-2.4006,-2.4006,-2.4006,-2.4006,-2.4006,-2.3606,-2.3667,-2.3667,-2.3738,-2.3751,-2.38,-2.3818,-2.3842,-2.3862,-2.3924,-2.3961,-2.397,-2.3993,-2.4039,-2.408,-2.4084,-2.4101,-2.4123,-2.4124,-2.4024,-2.401,-2.3997,-2.398,-2.4127,-2.4127,-2.4226,-2.4227,-2.4227]},{"header":{"parameterUnit":"m.s-1","parameterCategory":1,"la1":30.2991,"la2":30.254,"lo1":-89.0895,"lo2":-89.0444,"dy":0.0017,"dx":0.0017,"nx":28,"ny":28,"refTime":"2024-09-03T21:00:00:Z","depth":0,"parameterNumber":3,"parameterNumberName":"V-component_of_WINDS"},"data":[0,0,0,0,0,0,0,0,0,0,0,0,0,0,0,0,0,0,0,0,0,0,0,0,0,0,0,0,0,0,0,0,0,0,0,0,0,0,0,0,0,0,0,0,0,0,0,0,0,0,0,0,0,0,0,0,0,0,1.7642,1.7644,0,1.7822,1.7824,1.7826,1.7902,1.7902,1.7901,1.7901,1.8083,1.8088,1.8093,0,0,0,0,0,0,0,0,0,0,0,0,0,1.7363,1.7367,1.7642,1.7644,1.7647,1.7821,1.7824,1.7826,1.7902,1.7902,1.7901,1.7901,1.8081,1.8087,1.8093,0,0,0,0,0,0,0,0,0,0,0,0,0,1.7507,1.7369,1.7642,1.7706,1.7713,1.7821,1.7824,1.7827,1.7902,1.7902,1.7901,1.7901,1.8079,1.8086,1.8094,1.8151,0,0,1.8118,1.8121,0,0,0,0,0,0,0,0,1.7499,1.7517,1.7694,1.7701,1.771,1.7839,1.7792,1.7935,1.7902,1.783,1.7901,1.7901,1.8002,1.8016,1.805,1.8159,1.8167,1.8118,1.8123,1.8126,1.8128,0,0,0,0,0,0,0,1.7489,1.751,1.7713,1.7696,1.7706,1.7724,1.7744,1.7819,1.7916,1.7837,1.7843,1.7863,1.8006,1.8043,1.8055,1.817,1.8118,1.8125,1.813,1.8133,1.8334,1.8334,0,0,0,0,0,0,1.7468,1.7501,1.7707,1.7719,1.7601,1.773,1.7752,1.7798,1.7916,1.7933,1.7863,1.7866,1.803,1.8046,1.8062,1.8136,1.8126,1.8133,1.8138,1.8333,1.8334,1.8335,0,0,0,0,0,0,1.7462,1.7486,1.77,1.7612,1.764,1.7735,1.7786,1.7802,1.7839,1.7936,1.7953,1.7883,1.803,1.8051,1.8128,1.8144,1.8137,1.8144,1.8332,1.8333,1.8334,1.8285,0,0,0,0,0,0,1.7454,1.7483,1.7507,1.7612,1.7645,1.7764,1.7787,1.7806,1.7852,1.7857,1.7959,1.7976,1.8031,1.8116,1.8136,1.8154,1.815,1.8331,1.8333,1.8334,1.8286,1.8284,1.8283,0,0,0,0,0,1.7444,1.7486,1.7508,1.7532,1.7676,1.7765,1.7784,1.7848,1.7853,1.7877,1.7939,1.7972,1.8138,1.8124,1.8146,1.8167,1.8331,1.8332,1.8334,1.8286,1.8285,1.8283,0,0,0,0,0,0,1.738,1.7501,1.7526,1.7604,1.7673,1.7778,1.781,1.7844,1.7914,1.7915,1.7991,1.8013,1.8084,1.8133,1.8114,1.8228,1.8237,1.8243,1.8193,1.8193,1.8191,1.8178,1.8156,0,0,0,0,0,1.7375,1.7438,1.754,1.7598,1.7632,1.7714,1.7756,1.7799,1.7874,1.7904,1.7972,1.8043,1.8111,1.8154,1.8223,1.8293,1.8316,1.8318,1.8317,1.8315,1.832,1.836,1.8362,1.834,1.834,1.834,0,0,1.7365,1.7439,1.7474,1.7587,1.7646,1.7709,1.7739,1.7804,1.7851,1.7913,1.7991,1.8043,1.8127,1.8201,1.8237,1.8244,1.8331,1.8317,1.8315,1.8321,1.8362,1.8364,1.8366,1.8341,1.8341,1.8341,0,0,1.738,1.7442,1.7497,1.7556,1.7645,1.77,1.7712,1.7812,1.7849,1.7927,1.7975,1.8032,1.8148,1.8206,1.825,1.8285,1.8318,1.8305,1.8298,1.8337,1.8338,1.834,1.8353,1.8356,1.8309,1.8309,1.8309,0,1.7356,1.7454,1.7521,1.7584,1.7632,1.7691,1.7747,1.78,1.7906,1.7938,1.7944,1.8091,1.8152,1.824,1.8248,1.8282,1.8299,1.8294,1.8333,1.8336,1.8338,1.8351,1.8355,1.8307,1.8307,1.8307,1.8307,0,1.742,1.7487,1.752,1.7622,1.7674,1.7732,1.7808,1.7852,1.789,1.7943,1.8022,1.8097,1.8181,1.8205,1.8242,1.8298,1.83,1.8318,1.833,1.8337,1.835,1.8356,1.8304,1.8304,1.8305,1.8305,0,0,1.7402,1.7539,1.755,1.7597,1.7699,1.7751,1.7812,1.7895,1.793,1.8001,1.8054,1.815,1.8168,1.8219,1.8263,1.8297,1.8319,1.8312,1.8315,1.8311,1.8385,1.837,1.8375,1.8341,1.8342,1.8343,1.8378,0,1.743,1.7543,1.7604,1.7691,1.7752,1.7809,1.7862,1.7929,1.798,1.8039,1.8096,1.8163,1.8181,1.8212,1.8248,1.8309,1.8335,1.8307,1.8391,1.8393,1.8369,1.8382,1.8367,1.8396,1.8383,1.8384,1.8385,0,1.7479,1.7549,1.7642,1.7736,1.7764,1.7811,1.7891,1.7947,1.8025,1.8059,1.8115,1.8159,1.8224,1.8229,1.832,1.83,1.8337,1.8372,1.8375,1.8386,1.839,1.8393,1.8407,1.8411,1.8394,1.8393,1.8392,0,1.7456,1.7574,1.7644,1.7682,1.7794,1.7825,1.7873,1.795,1.7995,1.8065,1.8095,1.8171,1.8213,1.827,1.8333,1.8331,1.8418,1.8428,1.8448,1.8447,1.8465,1.8463,1.8485,1.8488,1.8487,1.8487,1.8487,0,1.7482,1.7537,1.7635,1.7679,1.7741,1.781,1.787,1.7922,1.799,1.8044,1.8096,1.8146,1.8225,1.8284,1.8334,1.8401,1.842,1.8449,1.8462,1.8445,1.8441,1.8472,1.8471,1.8489,1.8488,1.8488,1.8488,0,1.7468,1.7536,1.7617,1.7715,1.7741,1.7783,1.7867,1.7911,1.7964,1.8031,1.8051,1.8135,1.8207,1.8275,1.8371,1.8404,1.8472,1.8488,1.8446,1.8453,1.847,1.8467,1.8512,1.8522,1.8517,1.8517,1.8517,0,1.748,1.7524,1.7626,1.7667,1.7713,1.7777,1.7824,1.7893,1.7939,1.803,1.8062,1.8138,1.8203,1.8315,1.8384,1.8458,1.8477,1.8487,1.8488,1.847,1.8477,1.8474,1.8479,1.8486,1.8486,1.8485,1.8485,0,1.7495,1.7527,1.7592,1.7669,1.7723,1.7787,1.7852,1.7882,1.7963,1.8012,1.8087,1.8137,1.8235,1.831,1.8391,1.844,1.8476,1.8484,1.8493,1.8477,1.8451,1.8466,1.8443,1.8483,1.8483,1.8483,1.8484,1.8484,1.7496,1.7536,1.7615,1.7686,1.7742,1.7802,1.7848,1.7906,1.797,1.8055,1.8092,1.8167,1.8242,1.8356,1.8403,1.8463,1.8471,1.8484,1.8487,1.8489,1.8486,1.844,1.8478,1.8478,1.8478,1.8478,1.8478,0,1.7514,1.7567,1.7631,1.7721,1.7776,1.7805,1.7879,1.7923,1.7989,1.8056,1.8118,1.8204,1.8276,1.835,1.8426,1.846,1.8478,1.8477,1.8476,1.8487,1.8474,1.8459,1.8461,1.8461,1.8461,1.8461,1.8461,1.8461,1.753,1.76,1.7641,1.7739,1.7792,1.7866,1.7906,1.7961,1.8015,1.8108,1.8168,1.8216,1.8286,1.8367,1.8435,1.8455,1.8481,1.8475,1.85,1.8487,1.8488,1.8488,1.8475,1.848,1.848,1.8508,1.8508,1.8508]}]]